User: anonymous   Login
Location: Chuathbaluk
(61.5726°N, 159.2454°W)
Time: 09:43:04
(UTC+00:00)
Language:

YUBILEINY - Orbit

View from above orbital plane
View from above orbital plane
View from above satellite
View from above satellite

Ground track
Ground track

The orbit data is extracted from the following two-line orbital elements,

1 32953U 08025A   21017.08032107  .00000028  00000-0  12906-3 0  9990
2 32953  82.5046 145.0786 0018590 308.0709  51.8688 12.43099504574177
Epoch (UTC): 17 January 2021 01:55:39
Eccentricity: 0.0018590
inclination: 82.5046°
perigee height: 1479 km
apogee height: 1508 km
right ascension of ascending node: 145.0786°
argument of perigee: 308.0709°
revolutions per day: 12.43099504
mean anomaly at epoch: 51.8688°
orbit number at epoch: 57417

The dashed part of the orbit path shows where the satellite is in the earth's shadow,  

DLR